Location: Favalello
(42.2939°N, 9.2706°E)
Time: 20:22:06
(UTC+00:00)

Cosmos 2360 Rocket - Pass Details

Date: 06 December 2019
Orbit: 833 x 846 km, 71.0° (Epoch: 26 January)

Event Time Altitude Azimuth Distance (km) Brightness Sun altitude
Rises 16:26:29 0° 222° (SW) 3,381 6.7 -6.7°
Reaches altitude 10° 16:29:02 10° 228° (SW) 2,452 6.1 -7.2°
Maximum altitude 16:34:24 44° 300° (WNW) 1,149 3.3 -8.1°
Drops below altitude 10° 16:39:49 10° 13° (NNE) 2,473 4.3 -9.0°
Sets 16:42:24 0° 20° (NNE) 3,413 5.0 -9.4°
